Skip Page Navigation
NASA JPL Caltech
NASA Logo - Jet Propulsion Laboratory + View the NASA Portal
+ Center for Near-Earth Object Studies
JPL Home Earth Solar System Stars & Galaxies Technology
JPL Solar System Dynamics
BODIES ORBITS EPHEMERIDES TOOLS PHYSICAL DATA DISCOVERY FAQ SITE MAP
JPL Small-Body Database Browser
Search: [ help ]  
226296 (2003 BO65)
Classification: Main-belt Asteroid          SPK-ID: 2226296
Ephemeris | Orbit Diagram | Orbital Elements | Mission Design | Physical Parameters | Discovery Circumstances | Close-Approach Data ]

[ show orbit diagram ]
Orbital Elements at Epoch 2459000.5 (2020-May-31.0) TDB
Reference: JPL 14 (heliocentric ecliptic J2000)
 Element Value Uncertainty (1-sigma)   Units 
e .121206955771795 5.2211e-08  
a 2.434706420442335 1.3676e-08 au
q 2.139603067022476 1.2426e-07 au
i 3.032599773704171 6.1555e-06 deg
node 276.856673348841 8.5778e-05 deg
peri 153.7189839939219 8.8488e-05 deg
M 257.2597763275808 2.2916e-05 deg
tp 2459396.510165653903
(2021-Jul-01.01016565)
8.9945e-05 TDB
period 1387.612899208401
3.80
1.1692e-05
3.201e-08
d
yr
n .2594383492726041 2.186e-09 deg/d
Q 2.729809773862194 1.5334e-08 au
  Orbit Determination Parameters
   # obs. used (total)      363  
   data-arc span      6071 days (16.62 yr)  
   first obs. used      2002-12-14  
   last obs. used      2019-07-29  
   planetary ephem.      DE431  
   SB-pert. ephem.      SB431-N16  
   condition code      0  
   norm. resid. RMS      .61321  
   source      ORB  
   producer      Otto Matic  
   solution date      2020-Feb-25 05:52:18  

Additional Information
 Earth MOID = 1.1546 au 
 Jupiter MOID = 2.51301 au 
 T_jup = 3.493 
[ show covariance matrix ]

Ephemeris | Orbit Diagram | Orbital Elements | Mission Design | Physical Parameters | Discovery Circumstances | Close-Approach Data ]

Physical Parameter Table
Parameter Symbol Value Units Sigma Reference Notes
absolute magnitude H 16.6   n/a MPO475852  

226296 (2003 BO65)          Discovered 2003-Jan-30 by LONEOS at Anderson Mesa
Reference: 20091202/Numbers.arcLast Updated: 2009-12-04

[ show close-approach data ]
Ephemeris | Orbit Diagram | Orbital Elements | Mission Design | Physical Parameters | Discovery Circumstances | Close-Approach Data ]
ABOUT SSD CREDITS/AWARDS PRIVACY/COPYRIGHT GLOSSARY LINKS
FirstGov 2020-Aug-11 13:15 UT
(server date/time)  
NASA Home Page
Site Manager:   Ryan S. Park
Webmaster  Alan B. Chamberlin